Location: Detroit
(42.3310°N, 83.0460°W)
Time: 08:58:17
(UTC-04:00)

Explorer 11/Cluster Stage 4 - Pass Details

Date: 13 February 2023
Orbit: 466 x 1241 km, 28.8° (Epoch: 02 April)

Event Time Altitude Azimuth Distance (km) Brightness Sun altitude
Exits shadow 04:31:24 19° 162° (SSE) 2,255 8.9 -33.7°
Drops below altitude 10° 04:34:36 10° 139° (SE) 2,972 9.8 -33.2°
Sets 04:38:15 0° 126° (SE) 4,035 10.7 -32.5°
